Deep River, CT

11:57 AM EDT on September 25, 2016 (GMT -0400)
Chester

Weather History for KSNC - April, 2014

Change the Weather History Date:

Monday, April 28, 2014

  Actual Average (KHVN) Record (KHVN)
Temperature  
Mean Temperature 52 °F -  
Max Temperature 62 °F 60 °F 94 °F (1990)
Min Temperature 41 °F 43 °F 36 °F (1972)
Degree Days  
Heating Degree Days 14    
Growing Degree Days 2 (Base 50)    
Moisture  
Dew Point 33 °F    
Average Humidity 55    
Maximum Humidity 70    
Minimum Humidity 32    
Precipitation  
Precipitation 0.00 in - - ()
Sea Level Pressure  
Sea Level Pressure 30.07 in    
Wind  
Wind Speed 10 mph (NNE)    
Max Wind Speed 14 mph    
Max Gust Speed 23 mph    
Visibility 10 miles    
Events      
Averages and records for this station are not official NWS values.
T = Trace of Precipitation, MM = Missing Value Source: NWS Daily Summary

Daily Weather History Graph

Daily Weather History Graph

Search for Another Location

Airport or City:

Trip Planner

Search our weather history database for the weather conditions in past years. The results will help you decide how hot, cold, wet, or windy it might be!

Date:

Astronomy

Apr. 28, 2014 Rise Set
Actual Time 5:51 AM EDT 7:44 PM EDT
Civil Twilight 5:21 AM EDT 8:14 PM EDT
Nautical Twilight 4:45 AM EDT 8:50 PM EDT
Astronomical Twilight 4:06 AM EDT 9:29 PM EDT
Moon 5:28 AM EDT (4/28) 7:19 PM EDT (4/28)
Length of Visible Light 14h 52m
Length of Day
13h 53m
Waning Crescent, 0% of the Moon is Illuminated
Apr 28
Waning Crescent
Apr 29
New
May 6
First Quarter
May 14
Full
May 21
Last Quarter

Hourly Weather History & Observations

Time (EDT) Temp. Windchill Dew Point Humidity Pressure Visibility Wind Dir Wind Speed Gust Speed Precip Events Conditions
12:15 AM 44.6 °F 39.7 °F 32.0 °F 61% 30.09 in 10.0 mi NNW 9.2 mph - N/A   Clear
12:35 AM 44.6 °F 38.8 °F 32.0 °F 61% 30.09 in 10.0 mi NNW 11.5 mph - N/A   Clear
12:55 AM 44.6 °F 38.4 °F 32.0 °F 61% 30.09 in 10.0 mi NNW 12.7 mph 18.4 mph N/A   Clear
1:15 AM 44.6 °F 38.4 °F 32.0 °F 61% 30.09 in 10.0 mi NNW 12.7 mph 17.3 mph N/A   Clear
1:35 AM 44.6 °F 38.4 °F 32.0 °F 61% 30.09 in 10.0 mi NNW 12.7 mph - N/A   Clear
1:55 AM 44.6 °F 38.4 °F 32.0 °F 61% 30.08 in 10.0 mi NNW 12.7 mph - N/A   Clear
2:15 AM 42.8 °F 36.6 °F 32.0 °F 66% 30.07 in 10.0 mi NNW 11.5 mph - N/A   Clear
2:35 AM 42.8 °F 36.6 °F 32.0 °F 66% 30.06 in 10.0 mi NNW 11.5 mph 16.1 mph N/A   Clear
2:55 AM 42.8 °F 36.6 °F 32.0 °F 66% 30.06 in 10.0 mi North 11.5 mph - N/A   Clear
3:15 AM 42.8 °F 36.2 °F 32.0 °F 66% 30.05 in 10.0 mi North 12.7 mph - N/A   Clear
3:35 AM 42.8 °F 36.2 °F 32.0 °F 66% 30.04 in 10.0 mi North 12.7 mph - N/A   Clear
3:55 AM 42.8 °F 36.2 °F 32.0 °F 66% 30.03 in 10.0 mi North 12.7 mph 18.4 mph N/A   Clear
4:15 AM 42.8 °F 37.0 °F 32.0 °F 66% 30.03 in 10.0 mi North 10.4 mph - N/A   Clear
4:35 AM 41.0 °F 34.3 °F 32.0 °F 70% 30.02 in 10.0 mi North 11.5 mph 17.3 mph N/A   Clear
4:55 AM 41.0 °F 35.8 °F 32.0 °F 70% 30.02 in 10.0 mi North 8.1 mph - N/A   Clear
5:15 AM 41.0 °F 35.8 °F 32.0 °F 70% 30.03 in 10.0 mi North 8.1 mph - N/A   Clear
5:35 AM 41.0 °F 34.7 °F 32.0 °F 70% 30.04 in 10.0 mi North 10.4 mph - N/A   Clear
5:55 AM 41.0 °F 34.7 °F 32.0 °F 70% 30.04 in 10.0 mi North 10.4 mph - N/A   Clear
6:15 AM 41.0 °F 35.8 °F 32.0 °F 70% 30.05 in 10.0 mi NNW 8.1 mph - N/A   Clear
6:35 AM 41.0 °F 35.8 °F 32.0 °F 70% 30.06 in 10.0 mi NNW 8.1 mph - N/A   Clear
6:55 AM 42.8 °F 38.6 °F 33.8 °F 70% 30.06 in 10.0 mi NW 6.9 mph - N/A   Clear
7:15 AM 42.8 °F 37.5 °F 33.8 °F 70% 30.06 in 10.0 mi NW 9.2 mph - N/A   Clear
7:35 AM 44.6 °F 40.2 °F 33.8 °F 66% 30.07 in 10.0 mi NNW 8.1 mph - N/A   Clear
8:55 AM 48.2 °F - 33.8 °F 58% 30.06 in 10.0 mi North 13.8 mph 20.7 mph N/A   Clear
9:15 AM 50.0 °F - 32.0 °F 50% 30.06 in 10.0 mi NNW 13.8 mph 20.7 mph N/A   Clear
9:35 AM 50.0 °F - 32.0 °F 50% 30.06 in 10.0 mi North 12.7 mph 23.0 mph N/A   Clear
10:15 AM 51.8 °F - 32.0 °F 47% 30.06 in 10.0 mi North 12.7 mph 19.6 mph N/A   Clear
10:35 AM 53.6 °F - 32.0 °F 44% 30.06 in 10.0 mi NNW 10.4 mph 17.3 mph N/A   Clear
10:55 AM 53.6 °F - 32.0 °F 44% 30.06 in 10.0 mi North 10.4 mph 17.3 mph N/A   Clear
11:15 AM 53.6 °F - 32.0 °F 44% 30.05 in 10.0 mi North 9.2 mph 16.1 mph N/A   Clear
11:35 AM 55.4 °F - 32.0 °F 41% 30.04 in 10.0 mi NW 8.1 mph 18.4 mph N/A   Clear
11:55 AM 55.4 °F - 32.0 °F 41% 30.04 in 10.0 mi NE 8.1 mph - N/A   Clear
12:15 PM 57.2 °F - 32.0 °F 38% 30.03 in 10.0 mi NE 11.5 mph 16.1 mph N/A   Clear
12:35 PM 57.2 °F - 32.0 °F 38% 30.03 in 10.0 mi ENE 9.2 mph - N/A   Partly Cloudy
12:55 PM 57.2 °F - 32.0 °F 38% 30.02 in 10.0 mi NE 9.2 mph - N/A   Scattered Clouds
1:15 PM 57.2 °F - 32.0 °F 38% 30.02 in 10.0 mi Calm Calm - N/A   Scattered Clouds
1:35 PM 59.0 °F - 32.0 °F 36% 30.02 in 10.0 mi NNE 10.4 mph - N/A   Partly Cloudy
1:55 PM 59.0 °F - 32.0 °F 36% 30.01 in 10.0 mi West 3.5 mph - N/A   Partly Cloudy
2:15 PM 60.8 °F - 32.0 °F 34% 30.02 in 10.0 mi North 9.2 mph - N/A   Partly Cloudy
2:35 PM 59.0 °F - 32.0 °F 36% 30.02 in 10.0 mi ESE 3.5 mph - N/A   Partly Cloudy
2:55 PM 62.6 °F - 32.0 °F 32% 30.02 in 10.0 mi North 11.5 mph 16.1 mph N/A   Clear
3:15 PM 60.8 °F - 32.0 °F 34% 30.02 in 10.0 mi West 6.9 mph - N/A   Clear
3:55 PM 62.6 °F - 32.0 °F 32% 30.01 in 10.0 mi NNE 10.4 mph - N/A   Partly Cloudy
4:35 PM 62.6 °F - 33.8 °F 34% 30.01 in 10.0 mi North 3.5 mph - N/A   Clear
4:55 PM 62.6 °F - 33.8 °F 34% 30.01 in 10.0 mi NE 5.8 mph - N/A   Clear
5:15 PM 62.6 °F - 33.8 °F 34% 30.02 in 10.0 mi SSE 11.5 mph - N/A   Clear
5:35 PM 60.8 °F - 33.8 °F 36% 30.03 in 10.0 mi South 9.2 mph - N/A   Clear
5:55 PM 57.2 °F - 32.0 °F 38% 30.05 in 10.0 mi SE 10.4 mph - N/A   Clear
6:15 PM 53.6 °F - 35.6 °F 51% 30.06 in 10.0 mi SE 10.4 mph - N/A   Clear
6:35 PM 51.8 °F - 35.6 °F 54% 30.07 in 10.0 mi ESE 8.1 mph - N/A   Clear
6:55 PM 51.8 °F - 35.6 °F 54% 30.08 in 10.0 mi ESE 9.2 mph - N/A   Clear
7:15 PM 50.0 °F - 35.6 °F 58% 30.09 in 10.0 mi SE 9.2 mph - N/A   Partly Cloudy
7:35 PM 50.0 °F - 35.6 °F 58% 30.10 in 10.0 mi SE 4.6 mph - N/A   Scattered Clouds
7:55 PM 50.0 °F - 35.6 °F 58% 30.10 in 10.0 mi East 4.6 mph - N/A   Clear
8:15 PM 50.0 °F - 35.6 °F 58% 30.11 in 10.0 mi ESE 3.5 mph - N/A   Clear
8:35 PM 48.2 °F - 35.6 °F 62% 30.12 in 10.0 mi SE 8.1 mph - N/A   Clear
8:55 PM 48.2 °F - 37.4 °F 66% 30.14 in 10.0 mi SE 4.6 mph - N/A   Clear
9:15 PM 48.2 °F - 35.6 °F 62% 30.15 in 10.0 mi SE 4.6 mph - N/A   Clear
9:35 PM 46.4 °F 44.3 °F 35.6 °F 66% 30.16 in 10.0 mi SE 4.6 mph - N/A   Clear
9:55 PM 46.4 °F 44.3 °F 35.6 °F 66% 30.17 in 10.0 mi East 4.6 mph - N/A   Clear
10:15 PM 46.4 °F 44.3 °F 35.6 °F 66% 30.18 in 10.0 mi SE 4.6 mph - N/A   Clear
10:35 PM 46.4 °F 45.2 °F 35.6 °F 66% 30.19 in 10.0 mi ESE 3.5 mph - N/A   Clear
10:55 PM 46.4 °F - 35.6 °F 66% 30.19 in 10.0 mi Calm Calm - N/A   Mostly Cloudy
11:15 PM 46.4 °F 45.2 °F 35.6 °F 66% 30.19 in 10.0 mi East 3.5 mph - N/A   Scattered Clouds
11:35 PM 46.4 °F - 35.6 °F 66% 30.19 in 10.0 mi Calm Calm - N/A   Mostly Cloudy
11:55 PM 46.4 °F - 35.6 °F 66% 30.19 in 10.0 mi Calm Calm - N/A   Overcast